TimeEST,TemperatureF,Dew PointF,Humidity,Sea Level PressureIn,VisibilityMPH,Wind Direction,Wind SpeedMPH,Gust SpeedMPH,PrecipitationIn,Events,Conditions,WindDirDegrees,DateUTC
12:53 AM,39.0,26.1,60,30.30,10.0,ENE,4.6,-,N/A,,Clear,70,2012-02-21 05:53:00
1:53 AM,39.0,26.1,60,30.29,10.0,East,3.5,-,N/A,,Clear,90,2012-02-21 06:53:00
2:53 AM,37.9,27.0,65,30.28,10.0,Calm,Calm,-,N/A,,Clear,0,2012-02-21 07:53:00
3:53 AM,37.0,27.0,67,30.27,10.0,Calm,Calm,-,N/A,,Clear,0,2012-02-21 08:53:00
4:53 AM,33.1,27.0,78,30.30,10.0,Calm,Calm,-,N/A,,Clear,0,2012-02-21 09:53:00
5:53 AM,34.0,27.0,75,30.29,10.0,Calm,Calm,-,N/A,,Clear,0,2012-02-21 10:53:00
6:53 AM,35.1,28.0,76,30.28,10.0,Calm,Calm,-,N/A,,Mostly Cloudy,0,2012-02-21 11:53:00
7:53 AM,36.0,28.9,76,30.29,10.0,Calm,Calm,-,N/A,,Overcast,0,2012-02-21 12:53:00
8:53 AM,39.9,30.0,68,30.29,10.0,Calm,Calm,-,N/A,,Overcast,0,2012-02-21 13:53:00
9:53 AM,42.1,30.9,65,30.27,10.0,SW,3.5,-,N/A,,Overcast,220,2012-02-21 14:53:00
10:53 AM,46.0,32.0,58,30.25,10.0,SSW,8.1,-,N/A,,Overcast,210,2012-02-21 15:53:00
11:53 AM,51.1,32.0,48,30.22,10.0,SW,12.7,-,N/A,,Mostly Cloudy,220,2012-02-21 16:53:00
12:53 PM,52.0,33.1,49,30.19,10.0,SSW,10.4,19.6,N/A,,Overcast,200,2012-02-21 17:53:00
1:53 PM,53.1,34.0,48,30.13,10.0,SW,11.5,-,N/A,,Overcast,220,2012-02-21 18:53:00
2:53 PM,55.9,36.0,47,30.10,10.0,WSW,13.8,19.6,N/A,,Mostly Cloudy,250,2012-02-21 19:53:00
3:53 PM,54.0,37.0,53,30.09,10.0,WSW,9.2,-,N/A,,Overcast,240,2012-02-21 20:53:00
5:53 PM,53.1,39.0,59,30.06,10.0,WSW,6.9,-,N/A,,Clear,250,2012-02-21 22:53:00
6:53 PM,51.1,39.0,63,30.06,10.0,Calm,Calm,-,N/A,,Clear,0,2012-02-21 23:53:00
7:53 PM,48.9,37.9,66,30.05,10.0,SW,4.6,-,N/A,,Clear,230,2012-02-22 00:53:00
8:53 PM,48.0,37.9,68,30.06,10.0,Calm,Calm,-,N/A,,Partly Cloudy,0,2012-02-22 01:53:00
9:53 PM,46.9,37.9,71,30.05,10.0,Calm,Calm,-,N/A,,Clear,0,2012-02-22 02:53:00
10:53 PM,45.0,37.9,76,30.04,10.0,Calm,Calm,-,N/A,,Clear,0,2012-02-22 03:53:00
11:53 PM,43.0,37.0,80,30.03,10.0,Calm,Calm,-,N/A,,Partly Cloudy,0,2012-02-22 04:53:00